COSMOS 1375 DEB, 17800

Orbit data source: Space-Track

COSMOS 1375 DEB, 17800 is space debris in LEO originally from a launch on Sun, 06 Jun 1982 UTC launched from the Plesetsk Missile And Space Complex (PKMTR). Debris objects in space refer to the collection of defunct objects orbiting the Earth. Examples of debris include non-operational satellites, rocket bodies, and fragments generated from explosions, collisions, or faulty payload assembly.

Loading next visibility...
Identifier
17800, 1982-055AS
Orbit
LEO
Country
Flag of CISCIS
Related business
Manufacturer
Unknown
Mission
Spacecraft
Bus & Motor
Unknown
Mass
Unknown
Launch date (UTC)
1982-06-06 (44 years ago)
Launch vehicle
Unknown
Launch site
Plesetsk Missile And Space Complex (PKMTR)
Object type
Payload
Rocket body
Debris
Shape & HBR
Unknown shape, 0.1 m
Radar Cross Section
Medium (>0.1 m² and <1 m²)

Expand to show TLE details & history
Last TLE update: 3 days ago

TLE from 3 days ago
0 COSMOS 1375 DEB
1 17800U 82055AS  26170.84779199  .00000022  00000-0  11364-3 0  9998
2 17800  65.8360   2.8773 0022863  72.6785  32.4260 13.70825820 33064
Epoch: 2026-06-19T20:20Z
TLE epoch observation values (Epoch: 2026-06-19T20:20:49.227Z)
Latitude
61.79018°
Longitude
-86.7103°
Altitude
992.054 km
Speed
7.369 km/s
True Right ascension
08h 26m 15s
True Declination
61° 39' 04"
Sunlit
Object was in daylight at epoch
Visualization orbit readout
Latitude
Unknown
Longitude
Unknown
Altitude
Unknown
Speed
Unknown
Apparent Right ascension
Unknown
Apparent Declination
Unknown
Sunlit
N/A
Visualization observer readout
Local Sidereal Time
03:41:32
Azimuth
Unknown
Elevation
Unknown
Doppler factor
Unknown
Orbital elements
Apogee altitude
1,011.985 km
Perigee altitude
978.27 km
Semi-major axis
7,373.265 km
Eccentricity
0.00229
Inclination
65.836°
RAAN
2.8773°
Arg. of periapsis
72.6785°
True anomaly
32.56682°
Mean anomaly
32.426°
Eccentric anomaly
32.49638°
Mean motion
3.4281 °/min
Orbital period
105.01 mins
BSTAR
0.00011364
Loading maneuver chart data...
Computing Atmospheric mass density...
Loading historical data...
Loading historical data...
Loading historical data...
Loading historical data...
Loading historical data...
Loading historical data...
Loading historical data...

Documentation

Showing up to 5 results
|